Miscellaneous Local Product
Issued by NWS North Platte, NE

Home | Current Version | Previous Version | Text Only | Print | Product List | Glossary On
Versions: 1 2 3 4 5 6 7 8 9 10 11 12 13 14 15 16 17 18 19 20 21 22 23 24 25 26 27 28 29 30 31 32 33 34 35 36 37 38 39 40 41 42 43 44 45 46 47 48 49 50
000
AXUS43 KLBF 260610
MISLBF


WESTERN AND NORTH CENTRAL NEBRASKA HOURLY WEATHER ROUNDUP
NATIONAL WEATHER SERVICE NORTH PLATTE NE
100 AM CDT SUN APR 26 2015

***STATIONS NOT REPORTING VARIABLES SUCH AS SKY/WEATHER OR
PRESSURE ARE PROVIDED BY THE NEBRASKA DEPARTMENT OF
ROADS...RAWS...AND APRS NETWORKS...AND ARE NOT UNDER
NATIONAL WEATHER SERVICE QUALITY CONTROL***

...OBSERVATIONS IN AND NEAR THE EASTERN PANHANDLE OF NEBRASKA...

CITY           SKY/WX    TMP DP  RH WIND       PRES   REMARKS
PINE RIDGE     CLOUDY    47  44  90 N5        29.82F
CHADRON        CLOUDY    47  46  97 W5        29.83R FOG
ALLIANCE       CLOUDY    51  48  89 SE18G28   29.82R
SIDNEY         HVY RAIN  47  45  93 E8        29.87F FOG
WHITECLAY        N/A     43  42  96 CALM        N/A
CRESCENT LAKE    N/A     49  47  95 SE5         N/A
BIG SPRINGS      N/A     50  48  92 E15         N/A
$$

...OBSERVATIONS IN NORTH CENTRAL NEBRASKA...

CITY           SKY/WX    TMP DP  RH WIND       PRES   REMARKS
VALENTINE      CLOUDY    52  44  74 SE9       29.87S
THEDFORD       CLOUDY    52  46  80 SE9       29.88F
AINSWORTH      CLOUDY    50  45  84 SE14      29.89R
O`NEILL        CLOUDY    50  46  84 E3        29.92S
ORD            CLOUDY    48  43  82 E13       29.89S
BROKEN BOW     CLOUDY    47  43  86 E8        29.89S
BROWNLEE         N/A     51  46  84 SE7         N/A
VALENTINE NWR    N/A     49  44  83 SE9         N/A
SPRINGVIEW       N/A     51  45  80 SE5G12      N/A
HALSEY           N/A     50  45  84 E7          N/A
BREWSTER         N/A     47  44  91 SE6         N/A
ROSE             N/A     44  43  99 E6          N/A
NEWPORT          N/A     48  44  88 SE7         N/A
SARGENT          N/A     44  42  93 CALM        N/A
COMSTOCK         N/A     49  46  90 E12         N/A
EWING            N/A     50  43  78 E5          N/A
$$

...OBSERVATIONS IN SOUTHWEST NEBRASKA AND FAR NORTHEAST COLORADO...

CITY           SKY/WX    TMP DP  RH WIND       PRES   REMARKS
WRAY           CLOUDY    51  49  92 E15G24    29.83R
HOLYOKE        TSTM      46  43  87 NE8       29.88F
IMPERIAL       CLOUDY    47  45  93 E7        29.87R
OGALLALA       CLOUDY    48  46  93 E16       29.86F
MCCOOK         CLOUDY    48  46  93 E16       29.85R FOG
LEXINGTON      CLOUDY    48  45  88 E14       29.89R
PAXTON           N/A     50  47  88 E12         N/A
SUTHERLAND       N/A     43  40  88 E15         N/A
BRADY            N/A     48  43  84 NE5         N/A
GOTHENBURG       N/A     49  44  82 E12         N/A
CALLAWAY         N/A     49  46  90 E12         N/A
$$

...NORTH PLATTE AREA...

CITY           SKY/WX    TMP DP  RH WIND       PRES   REMARKS
$$

...SOME WEATHER OBSERVATIONS FROM AROUND THE REGION...

CITY           SKY/WX    TMP DP  RH WIND       PRES   REMARKS
DENVER         CLOUDY    48  42  80 N8        29.78F
LARAMIE        LGT RAIN  38  36  92 NW3       29.82S
CHEYENNE       CLOUDY    44  38  79 E10       29.81S
SCOTTSBLUFF    LGT RAIN  51  47  86 SE10      29.84R
RAPID CITY     CLOUDY    46  42  86 N17       29.87S
PIERRE         CLOUDY    53  45  74 SE8       29.89R
WINNER         MOCLDY    50  44  80 E8        29.88F
SIOUX FALLS    PTCLDY    45  37  73 E6        29.96R
OMAHA          CLOUDY    49  42  77 NE7       29.92R
GRAND ISLAND   CLOUDY    48  43  82 E12       29.90R
KANSAS CITY    CLOUDY    49  47  93 NE12      29.84R
WICHITA        CLOUDY    54  50  86 E16       29.79R
HAYS           CLOUDY    50  43  76 NE16      29.82R
LIBERAL        PTCLDY    57  48  72 E16       29.73S
GOODLAND       FOG       50  50 100 E17       29.80R VSB 3/4
$$



USA.gov is the U.S. government's official web portal to all federal, state and local government web resources and services.